Flag for U.S.A. Weather past 2 weeks in Cape Coral, Florida, U.S.A.

Now
66 °F

Passing clouds.


Feels Like: 66 °F
Forecast: 58 / 70 °F
Wind: 20 mph from Northwest

Location: Page Field

Current Time: Jan 26, 2015 at 5:40:03 PM

Latest Report: Jan 26, 2015 at 4:53 PM


Visibility: 10 mi

Pressure: 29.92 "Hg

Humidity: 52%

Dew point: 48 °F

Location of Cape CoralLocation

Historic Weather in Cape Coral — Graph

°F

Cape Coral temperature yesterday

Maximum temperature yesterday: 66 °F (at 1:53 PM)
Minimum temperature yesterday: 48 °F (at 5:53 AM)
Average temperature yesterday: 57 °F

Past Weeks' High & Low Weather Summary

 TemperatureHumidityPressure
High82 °F (Jan 21, 4:53 PM)100% (Jan 11, 11:53 PM)30.26 "Hg (Jan 11, 11:53 PM)
Low48 °F (Jan 25, 5:53 AM)28% (Jan 19, 1:53 PM)29.82 "Hg (Jan 24, 3:53 AM)
Average66 °F80%30.08 "Hg
* Reported Jan 11 3:53 PM — Jan 26 3:53 PM, Cape Coral, Weather by CustomWeather, © 2014

Note: Actual official high and low records may vary slightly from our data, if they occured in-between our weather recording intervals... More about our weather records

Advertising

Cape Coral weather history for previous 24 hours

 ConditionsComfort  
Time TempWeatherWind HumidityBarometerVisibility
3:53 PM
Jan 26
67 °FPassing clouds.21 mph51%29.90 "Hg10 mi
2:53 PM68 °FScattered clouds.22 mph55%29.89 "Hg10 mi
1:53 PM71 °FPartly sunny.21 mph49%29.89 "Hg10 mi
12:53 PM71 °FScattered clouds.21 mph45%29.91 "Hg10 mi
11:53 AM70 °FPassing clouds.17 mph51%29.94 "Hg10 mi
10:53 AM68 °FPartly sunny.17 mph63%29.96 "Hg10 mi
9:53 AM67 °FPartly sunny.8 mph85%29.96 "Hg10 mi
8:53 AM62 °FBroken clouds.9 mph96%29.94 "Hg9 mi
8:00 AM62 °FLight rain. Mostly cloudy.17 mph90%29.93 "Hg7 mi
6:53 AM66 °FLight rain. Mostly cloudy.20 mph81%29.90 "Hg6 mi
5:53 AM65 °FClear.8 mph76%29.88 "Hg10 mi
4:53 AM64 °FPassing clouds.8 mph75%29.90 "Hg10 mi
3:53 AM62 °FMostly cloudy.5 mph75%29.93 "Hg10 mi
2:53 AM54 °FClear.No wind90%29.93 "Hg10 mi
1:53 AM54 °FClear.No wind97%29.94 "Hg10 mi
12:53 AM55 °FClear.6 mph96%29.96 "Hg10 mi
11:53 PM
Jan 25
56 °FClear.5 mph90%29.99 "Hg10 mi
10:53 PM55 °FClear.5 mph90%30.01 "Hg10 mi
9:53 PM55 °FClear.3 mph87%30.02 "Hg10 mi
8:53 PM56 °FClear.No wind81%30.04 "Hg10 mi
7:53 PM58 °FClear.5 mph75%30.05 "Hg10 mi
6:53 PM59 °FClear.6 mph69%30.04 "Hg10 mi
5:53 PM63 °FSunny.9 mph58%30.02 "Hg10 mi
Weather by CustomWeather, © 2014

See weather overviewHow to use our weather pages